Time,TemperatureF,DewpointF,PressureIn,WindDirection,WindDirectionDegrees,WindSpeedMPH,WindSpeedGustMPH,Humidity,HourlyPrecipIn,Conditions,Clouds,dailyrainin,SoftwareType,DateUTC
2013-06-16 00:00:00,70.3,63.1,29.51,NNE,22,3.0,10.0,78,0.00,,,0.00,meteohub,2013-06-16 05:00:00,
2013-06-16 00:05:00,70.3,62.8,29.51,NNW,338,3.0,10.0,77,0.00,,,0.00,meteohub,2013-06-16 05:05:00,
2013-06-16 00:10:00,70.3,62.8,29.51,NNE,22,3.0,7.0,77,0.00,,,0.00,meteohub,2013-06-16 05:10:00,
2013-06-16 00:15:00,70.3,62.4,29.51,NW,315,2.0,5.0,76,0.00,,,0.00,meteohub,2013-06-16 05:15:00,
2013-06-16 00:20:00,70.3,62.4,29.51,West,270,3.0,6.0,76,0.00,,,0.00,meteohub,2013-06-16 05:20:00,
2013-06-16 00:25:00,70.3,62.4,29.51,NNW,338,2.0,6.0,76,0.00,,,0.00,meteohub,2013-06-16 05:25:00,
2013-06-16 00:30:00,70.2,62.2,29.51,North,0,3.0,6.0,76,0.00,,,0.00,meteohub,2013-06-16 05:30:00,
2013-06-16 00:35:00,70.2,62.2,29.51,North,0,4.0,4.0,76,0.00,,,0.00,meteohub,2013-06-16 05:35:00,
2013-06-16 00:40:00,70.2,62.6,29.51,NNW,338,2.0,4.0,77,0.00,,,0.00,meteohub,2013-06-16 05:40:00,
2013-06-16 00:45:00,70.0,62.4,29.51,WNW,292,1.0,4.0,77,0.00,,,0.00,meteohub,2013-06-16 05:45:00,
2013-06-16 00:50:00,69.8,62.2,29.48,North,0,4.0,4.0,77,0.00,,,0.00,meteohub,2013-06-16 05:50:00,
2013-06-16 00:56:00,70.0,62.4,29.48,North,0,2.0,4.0,77,0.00,,,0.00,meteohub,2013-06-16 05:56:00,
2013-06-16 01:01:00,69.8,62.6,29.48,NW,315,0.0,4.0,78,0.00,,,0.00,meteohub,2013-06-16 06:01:00,
2013-06-16 01:06:00,69.8,62.2,29.51,West,270,3.0,4.0,77,0.00,,,0.00,meteohub,2013-06-16 06:06:00,
2013-06-16 01:11:00,70.0,63.1,29.51,NE,45,4.0,4.0,79,0.00,,,0.00,meteohub,2013-06-16 06:11:00,
2013-06-16 01:16:00,69.8,63.0,29.48,North,0,3.0,6.0,79,0.00,,,0.00,meteohub,2013-06-16 06:16:00,
2013-06-16 01:21:00,69.6,63.1,29.48,East,90,3.0,6.0,80,0.00,,,0.00,meteohub,2013-06-16 06:21:00,
2013-06-16 01:26:00,69.6,63.1,29.48,NE,45,2.0,6.0,80,0.00,,,0.00,meteohub,2013-06-16 06:26:00,
2013-06-16 01:31:00,69.6,62.8,29.48,NE,45,1.0,5.0,79,0.00,,,0.00,meteohub,2013-06-16 06:31:00,
2013-06-16 01:36:00,69.6,63.1,29.48,South,180,1.0,4.0,80,0.00,,,0.00,meteohub,2013-06-16 06:36:00,
2013-06-16 01:41:00,69.6,63.1,29.48,South,180,0.0,4.0,80,0.00,,,0.00,meteohub,2013-06-16 06:41:00,
2013-06-16 01:46:00,69.6,63.1,29.51,SSW,202,1.0,3.0,80,0.00,,,0.00,meteohub,2013-06-16 06:46:00,
2013-06-16 01:51:00,69.4,63.0,29.51,South,180,0.0,2.0,80,0.00,,,0.00,meteohub,2013-06-16 06:51:00,
2013-06-16 01:56:00,69.3,62.8,29.51,South,180,0.0,2.0,80,0.00,,,0.00,meteohub,2013-06-16 06:56:00,
2013-06-16 02:01:00,69.3,62.8,29.48,South,180,0.0,2.0,80,0.00,,,0.00,meteohub,2013-06-16 07:01:00,
2013-06-16 02:06:00,69.3,62.8,29.48,South,180,0.0,1.0,80,0.00,,,0.00,meteohub,2013-06-16 07:06:00,
2013-06-16 02:12:00,69.3,62.8,29.48,South,180,0.0,1.0,80,0.00,,,0.00,meteohub,2013-06-16 07:12:00,
2013-06-16 02:17:00,69.3,62.8,29.48,South,180,0.0,0.0,80,0.00,,,0.00,meteohub,2013-06-16 07:17:00,
2013-06-16 02:22:00,69.3,62.8,29.48,South,180,0.0,0.0,80,0.00,,,0.00,meteohub,2013-06-16 07:22:00,
2013-06-16 02:27:00,69.1,63.0,29.48,South,180,0.0,0.0,81,0.00,,,0.00,meteohub,2013-06-16 07:27:00,
2013-06-16 02:32:00,69.1,63.0,29.45,East,90,1.0,2.0,81,0.00,,,0.00,meteohub,2013-06-16 07:32:00,
2013-06-16 02:37:00,69.1,63.0,29.45,South,180,1.0,2.0,81,0.00,,,0.00,meteohub,2013-06-16 07:37:00,
2013-06-16 02:42:00,69.1,63.0,29.45,SW,225,0.0,3.0,81,0.00,,,0.00,meteohub,2013-06-16 07:42:00,
2013-06-16 02:47:00,68.9,62.8,29.45,SSW,202,3.0,3.0,81,0.00,,,0.00,meteohub,2013-06-16 07:47:00,
2013-06-16 02:52:00,69.1,63.0,29.45,SSW,202,0.0,4.0,81,0.00,,,0.00,meteohub,2013-06-16 07:52:00,
2013-06-16 02:57:00,68.9,62.8,29.45,SSW,202,0.0,4.0,81,0.00,,,0.00,meteohub,2013-06-16 07:57:00,
2013-06-16 03:02:00,68.9,62.8,29.45,SSW,202,0.0,4.0,81,0.00,,,0.00,meteohub,2013-06-16 08:02:00,
2013-06-16 03:07:00,68.9,62.8,29.45,SSE,158,1.0,2.0,81,0.00,,,0.00,meteohub,2013-06-16 08:07:00,
2013-06-16 03:12:00,68.9,62.8,29.45,NE,45,0.0,2.0,81,0.00,,,0.00,meteohub,2013-06-16 08:12:00,
2013-06-16 03:17:00,68.9,62.8,29.42,SSE,158,1.0,3.0,81,0.00,,,0.00,meteohub,2013-06-16 08:17:00,
2013-06-16 03:22:00,68.7,62.6,29.42,SSE,158,2.0,3.0,81,0.00,,,0.00,meteohub,2013-06-16 08:22:00,
2013-06-16 03:27:00,68.7,62.6,29.42,South,180,2.0,3.0,81,0.00,,,0.00,meteohub,2013-06-16 08:27:00,
2013-06-16 03:32:00,68.7,62.6,29.45,West,270,1.0,3.0,81,0.00,,,0.00,meteohub,2013-06-16 08:32:00,
2013-06-16 03:37:00,68.7,62.6,29.45,SSW,202,2.0,3.0,81,0.00,,,0.00,meteohub,2013-06-16 08:37:00,
2013-06-16 03:42:00,68.7,62.6,29.45,ENE,68,2.0,3.0,81,0.00,,,0.00,meteohub,2013-06-16 08:42:00,
2013-06-16 03:47:00,68.7,62.6,29.45,ENE,68,0.0,3.0,81,0.00,,,0.00,meteohub,2013-06-16 08:47:00,
2013-06-16 03:52:00,68.5,62.4,29.45,SSE,158,0.0,3.0,81,0.00,,,0.00,meteohub,2013-06-16 08:52:00,
2013-06-16 03:57:00,68.5,62.4,29.45,NW,315,2.0,2.0,81,0.00,,,0.00,meteohub,2013-06-16 08:57:00,
2013-06-16 04:02:00,68.7,62.6,29.48,NNW,338,0.0,2.0,81,0.00,,,0.00,meteohub,2013-06-16 09:02:00,
2013-06-16 04:07:00,68.7,62.6,29.48,NW,315,0.0,2.0,81,0.00,,,0.00,meteohub,2013-06-16 09:07:00,
2013-06-16 04:12:00,68.7,62.6,29.48,SSW,202,2.0,2.0,81,0.00,,,0.00,meteohub,2013-06-16 09:12:00,
2013-06-16 04:17:00,68.7,62.6,29.45,SW,225,2.0,3.0,81,0.00,,,0.00,meteohub,2013-06-16 09:17:00,
2013-06-16 04:22:00,68.7,62.6,29.45,SW,225,2.0,4.0,81,0.00,,,0.00,meteohub,2013-06-16 09:22:00,
2013-06-16 04:27:00,68.7,63.3,29.45,WSW,248,3.0,4.0,83,0.00,,,0.00,meteohub,2013-06-16 09:27:00,
2013-06-16 04:32:00,68.7,63.0,29.45,South,180,2.0,4.0,82,0.00,,,0.00,meteohub,2013-06-16 09:32:00,
2013-06-16 04:37:00,68.7,62.6,29.45,SSE,158,3.0,4.0,81,0.00,,,0.00,meteohub,2013-06-16 09:37:00,
2013-06-16 04:42:00,68.7,62.6,29.45,SSW,202,0.0,4.0,81,0.00,,,0.00,meteohub,2013-06-16 09:42:00,
2013-06-16 04:47:00,68.7,63.0,29.42,South,180,2.0,4.0,82,0.00,,,0.00,meteohub,2013-06-16 09:47:00,
2013-06-16 04:52:00,68.7,62.6,29.42,South,180,1.0,4.0,81,0.00,,,0.00,meteohub,2013-06-16 09:52:00,
2013-06-16 04:57:00,68.7,62.6,29.42,SW,225,1.0,3.0,81,0.00,,,0.00,meteohub,2013-06-16 09:57:00,
2013-06-16 05:02:00,68.5,62.4,29.45,South,180,0.0,2.0,81,0.00,,,0.00,meteohub,2013-06-16 10:02:00,
2013-06-16 05:07:00,68.5,62.8,29.45,SW,225,1.0,2.0,82,0.00,,,0.00,meteohub,2013-06-16 10:07:00,
2013-06-16 05:12:00,68.7,63.3,29.45,WSW,248,3.0,3.0,83,0.00,,,0.00,meteohub,2013-06-16 10:12:00,
2013-06-16 05:17:00,68.7,63.3,29.48,West,270,3.0,3.0,83,0.00,,,0.00,meteohub,2013-06-16 10:17:00,
2013-06-16 05:22:00,68.7,63.3,29.48,West,270,3.0,5.0,83,0.00,,,0.00,meteohub,2013-06-16 10:22:00,
2013-06-16 05:27:00,68.7,63.3,29.48,WSW,248,3.0,5.0,83,0.00,,,0.00,meteohub,2013-06-16 10:27:00,
2013-06-16 05:32:00,68.7,63.3,29.48,WSW,248,2.0,4.0,83,0.00,,,0.00,meteohub,2013-06-16 10:32:00,
2013-06-16 05:37:00,68.7,63.0,29.48,SSW,202,0.0,4.0,82,0.00,,,0.00,meteohub,2013-06-16 10:37:00,
2013-06-16 05:42:00,68.7,63.0,29.48,South,180,0.0,4.0,82,0.00,,,0.00,meteohub,2013-06-16 10:42:00,
2013-06-16 05:47:00,68.7,63.0,29.48,SW,225,2.0,3.0,82,0.00,,,0.00,meteohub,2013-06-16 10:47:00,
2013-06-16 05:52:00,68.7,63.0,29.48,SW,225,1.0,3.0,82,0.00,,,0.00,meteohub,2013-06-16 10:52:00,
2013-06-16 05:57:00,68.9,63.1,29.48,WSW,248,3.0,3.0,82,0.00,,,0.00,meteohub,2013-06-16 10:57:00,
2013-06-16 06:02:00,68.9,63.1,29.48,NW,315,1.0,4.0,82,0.00,,,0.00,meteohub,2013-06-16 11:02:00,
2013-06-16 06:07:00,68.9,63.1,29.48,WNW,292,3.0,4.0,82,0.00,,,0.00,meteohub,2013-06-16 11:07:00,
2013-06-16 06:12:00,68.9,63.1,29.48,West,270,3.0,6.0,82,0.00,,,0.00,meteohub,2013-06-16 11:12:00,
2013-06-16 06:17:00,69.1,63.3,29.48,WNW,292,1.0,6.0,82,0.00,,,0.00,meteohub,2013-06-16 11:17:00,
2013-06-16 06:22:00,69.1,63.3,29.48,WNW,292,2.0,6.0,82,0.00,,,0.00,meteohub,2013-06-16 11:22:00,
2013-06-16 06:27:00,69.3,63.5,29.48,SW,225,3.0,5.0,82,0.00,,,0.00,meteohub,2013-06-16 11:27:00,
2013-06-16 06:32:00,69.3,63.5,29.48,WSW,248,2.0,3.0,82,0.00,,,0.00,meteohub,2013-06-16 11:32:00,
2013-06-16 06:37:00,69.3,63.5,29.48,South,180,0.0,3.0,82,0.00,,,0.00,meteohub,2013-06-16 11:37:00,
2013-06-16 06:42:00,69.4,63.7,29.48,South,180,0.0,3.0,82,0.00,,,0.00,meteohub,2013-06-16 11:42:00,
2013-06-16 06:47:00,69.4,63.7,29.51,SSW,202,1.0,3.0,82,0.00,,,0.00,meteohub,2013-06-16 11:47:00,
2013-06-16 06:52:00,69.6,63.9,29.51,SW,225,0.0,2.0,82,0.00,,,0.00,meteohub,2013-06-16 11:52:00,
2013-06-16 06:57:00,69.6,63.9,29.51,SSW,202,2.0,3.0,82,0.00,,,0.00,meteohub,2013-06-16 11:57:00,
2013-06-16 07:02:00,69.6,63.9,29.48,WSW,248,2.0,3.0,82,0.00,,,0.00,meteohub,2013-06-16 12:02:00,
2013-06-16 07:07:00,69.6,63.9,29.48,West,270,0.0,3.0,82,0.00,,,0.00,meteohub,2013-06-16 12:07:00,
2013-06-16 07:12:00,69.8,64.0,29.48,West,270,1.0,3.0,82,0.00,,,0.00,meteohub,2013-06-16 12:12:00,
2013-06-16 07:17:00,69.8,64.0,29.48,ESE,112,2.0,3.0,82,0.00,,,0.00,meteohub,2013-06-16 12:17:00,
2013-06-16 07:22:00,69.8,64.0,29.48,ENE,68,3.0,3.0,82,0.00,,,0.00,meteohub,2013-06-16 12:22:00,
2013-06-16 07:27:00,69.6,64.9,29.48,ENE,68,2.0,4.0,85,0.00,,,0.00,meteohub,2013-06-16 12:27:00,
2013-06-16 07:32:00,69.6,64.6,29.48,ENE,68,1.0,4.0,84,0.00,,,0.00,meteohub,2013-06-16 12:32:00,
2013-06-16 07:37:00,69.8,64.8,29.48,South,180,2.0,4.0,84,0.00,,,0.00,meteohub,2013-06-16 12:37:00,
2013-06-16 07:42:00,69.8,65.1,29.48,SSW,202,0.0,4.0,85,0.00,,,0.00,meteohub,2013-06-16 12:42:00,
2013-06-16 07:47:00,69.8,65.1,29.51,South,180,0.0,3.0,85,0.00,,,0.00,meteohub,2013-06-16 12:47:00,
2013-06-16 07:52:00,70.0,65.3,29.51,SSW,202,0.0,2.0,85,0.00,,,0.00,meteohub,2013-06-16 12:52:00,
2013-06-16 07:57:00,70.2,65.5,29.51,South,180,1.0,2.0,85,0.00,,,0.00,meteohub,2013-06-16 12:57:00,
2013-06-16 08:02:00,70.2,65.1,29.51,South,180,0.0,2.0,84,0.00,,,0.00,meteohub,2013-06-16 13:02:00,
2013-06-16 08:07:00,70.3,65.3,29.51,ESE,112,0.0,2.0,84,0.00,,,0.00,meteohub,2013-06-16 13:07:00,
2013-06-16 08:12:00,70.3,65.7,29.51,East,90,0.0,2.0,85,0.00,,,0.00,meteohub,2013-06-16 13:12:00,
2013-06-16 08:17:00,70.3,65.3,29.48,South,180,2.0,2.0,84,0.00,,,0.00,meteohub,2013-06-16 13:17:00,
2013-06-16 08:22:00,70.3,65.3,29.48,South,180,4.0,4.0,84,0.00,,,0.00,meteohub,2013-06-16 13:22:00,
2013-06-16 08:27:00,70.3,65.3,29.48,SSW,202,0.0,4.0,84,0.00,,,0.00,meteohub,2013-06-16 13:27:00,
2013-06-16 08:32:00,70.7,65.7,29.51,SSW,202,2.0,4.0,84,0.00,,,0.00,meteohub,2013-06-16 13:32:00,
2013-06-16 08:37:00,71.1,65.7,29.51,South,180,0.0,4.0,83,0.00,,,0.00,meteohub,2013-06-16 13:37:00,
2013-06-16 08:42:00,71.2,65.8,29.51,ENE,68,0.0,4.0,83,0.00,,,0.00,meteohub,2013-06-16 13:42:00,
2013-06-16 08:47:00,71.8,66.0,29.51,ESE,112,2.0,4.0,82,0.00,,,0.00,meteohub,2013-06-16 13:47:00,
2013-06-16 08:52:00,72.1,66.0,29.51,South,180,0.0,2.0,81,0.00,,,0.00,meteohub,2013-06-16 13:52:00,
2013-06-16 08:57:00,72.5,66.4,29.51,East,90,2.0,3.0,81,0.00,,,0.00,meteohub,2013-06-16 13:57:00,
2013-06-16 09:02:00,72.7,66.2,29.48,ENE,68,1.0,3.0,80,0.00,,,0.00,meteohub,2013-06-16 14:02:00,
2013-06-16 09:07:00,72.5,65.7,29.48,NE,45,2.0,3.0,79,0.00,,,0.00,meteohub,2013-06-16 14:07:00,
2013-06-16 09:12:00,72.3,65.1,29.48,South,180,2.0,3.0,78,0.00,,,0.00,meteohub,2013-06-16 14:12:00,
2013-06-16 09:17:00,72.3,65.5,29.48,SSE,158,1.0,3.0,79,0.00,,,0.00,meteohub,2013-06-16 14:17:00,
2013-06-16 09:22:00,72.7,65.8,29.48,ENE,68,0.0,4.0,79,0.00,,,0.00,meteohub,2013-06-16 14:22:00,
2013-06-16 09:27:00,73.0,66.2,29.48,SSE,158,1.0,4.0,79,0.00,,,0.00,meteohub,2013-06-16 14:27:00,
2013-06-16 09:32:00,73.2,66.0,29.48,ESE,112,2.0,4.0,78,0.00,,,0.00,meteohub,2013-06-16 14:32:00,
2013-06-16 09:37:00,73.2,66.0,29.48,SSW,202,3.0,6.0,78,0.00,,,0.00,meteohub,2013-06-16 14:37:00,
2013-06-16 09:42:00,72.9,65.3,29.48,SSE,158,2.0,6.0,77,0.00,,,0.00,meteohub,2013-06-16 14:42:00,
2013-06-16 09:47:00,72.7,65.1,29.48,SSE,158,1.0,5.0,77,0.00,,,0.00,meteohub,2013-06-16 14:47:00,
2013-06-16 09:52:00,72.5,64.9,29.48,NE,45,0.0,3.0,77,0.00,,,0.00,meteohub,2013-06-16 14:52:00,
2013-06-16 09:57:00,72.3,64.8,29.48,SSE,158,3.0,3.0,77,0.00,,,0.00,meteohub,2013-06-16 14:57:00,
2013-06-16 10:02:00,72.0,64.8,29.48,SW,225,0.0,3.0,78,0.00,,,0.00,meteohub,2013-06-16 15:02:00,
2013-06-16 10:07:00,71.8,64.2,29.48,East,90,0.0,3.0,77,0.00,,,0.00,meteohub,2013-06-16 15:07:00,
2013-06-16 10:12:00,71.6,64.8,29.48,NNW,338,4.0,4.0,79,0.00,,,0.00,meteohub,2013-06-16 15:12:00,
2013-06-16 10:17:00,71.4,64.9,29.48,NNE,22,3.0,5.0,80,0.00,,,0.00,meteohub,2013-06-16 15:17:00,
2013-06-16 10:22:00,71.1,64.6,29.48,NE,45,2.0,5.0,80,0.00,,,0.00,meteohub,2013-06-16 15:22:00,
2013-06-16 10:27:00,70.9,64.8,29.48,North,0,1.0,5.0,81,0.00,,,0.00,meteohub,2013-06-16 15:27:00,
2013-06-16 10:32:00,71.1,65.3,29.48,ENE,68,0.0,4.0,82,0.04,,,0.04,meteohub,2013-06-16 15:32:00,
2013-06-16 10:37:00,70.7,65.3,29.48,ENE,68,0.0,3.0,83,0.04,,,0.04,meteohub,2013-06-16 15:37:00,
2013-06-16 10:42:00,70.5,65.1,29.48,East,90,3.0,3.0,83,0.04,,,0.04,meteohub,2013-06-16 15:42:00,
2013-06-16 10:47:00,70.3,65.7,29.48,East,90,0.0,3.0,85,0.08,,,0.08,meteohub,2013-06-16 15:47:00,
2013-06-16 10:52:00,70.3,66.2,29.48,East,90,0.0,3.0,87,0.08,,,0.08,meteohub,2013-06-16 15:52:00,
2013-06-16 10:58:00,70.5,66.4,29.48,West,270,0.0,3.0,87,0.08,,,0.08,meteohub,2013-06-16 15:58:00,
2013-06-16 11:03:00,70.5,66.4,29.48,East,90,3.0,3.0,87,0.12,,,0.12,meteohub,2013-06-16 16:03:00,
2013-06-16 11:08:00,70.3,66.2,29.48,East,90,1.0,3.0,87,0.12,,,0.12,meteohub,2013-06-16 16:08:00,
2013-06-16 11:13:00,70.5,66.7,29.48,WSW,248,2.0,3.0,88,0.12,,,0.12,meteohub,2013-06-16 16:13:00,
2013-06-16 11:18:00,70.3,66.6,29.48,SSE,158,0.0,3.0,88,0.12,,,0.12,meteohub,2013-06-16 16:18:00,
2013-06-16 11:23:00,70.2,66.4,29.48,SSE,158,0.0,3.0,88,0.12,,,0.12,meteohub,2013-06-16 16:23:00,
2013-06-16 11:28:00,70.3,66.9,29.48,South,180,0.0,3.0,89,0.12,,,0.12,meteohub,2013-06-16 16:28:00,
2013-06-16 11:33:00,70.3,66.9,29.48,South,180,0.0,2.0,89,0.08,,,0.12,meteohub,2013-06-16 16:33:00,
2013-06-16 11:38:00,70.5,67.5,29.48,North,0,8.0,8.0,90,0.08,,,0.12,meteohub,2013-06-16 16:38:00,
2013-06-16 11:43:00,70.2,67.1,29.48,NNE,22,11.0,11.0,90,0.04,,,0.12,meteohub,2013-06-16 16:43:00,
2013-06-16 11:48:00,69.6,66.9,29.51,NE,45,8.0,11.0,91,0.08,,,0.16,meteohub,2013-06-16 16:48:00,
2013-06-16 11:53:00,69.4,66.7,29.51,ENE,68,5.0,11.0,91,0.13,,,0.21,meteohub,2013-06-16 16:53:00,
2013-06-16 11:58:00,69.4,66.7,29.51,ENE,68,5.0,11.0,91,0.12,,,0.24,meteohub,2013-06-16 16:58:00,
2013-06-16 12:03:00,69.6,67.3,29.51,NE,45,4.0,8.0,92,0.12,,,0.24,meteohub,2013-06-16 17:03:00,
2013-06-16 12:08:00,69.6,67.3,29.51,ENE,68,0.0,8.0,92,0.12,,,0.24,meteohub,2013-06-16 17:08:00,
2013-06-16 12:14:00,69.6,67.3,29.51,NE,45,5.0,6.0,92,0.12,,,0.24,meteohub,2013-06-16 17:14:00,
2013-06-16 12:19:00,69.8,67.3,29.51,SSE,158,0.0,5.0,92,0.12,,,0.24,meteohub,2013-06-16 17:19:00,
2013-06-16 12:24:00,70.0,67.5,29.51,East,90,1.0,6.0,92,0.12,,,0.24,meteohub,2013-06-16 17:24:00,
2013-06-16 12:29:00,70.0,67.5,29.51,ESE,112,0.0,6.0,92,0.12,,,0.24,meteohub,2013-06-16 17:29:00,
2013-06-16 12:34:00,70.2,67.6,29.48,SSW,202,0.0,4.0,92,0.12,,,0.24,meteohub,2013-06-16 17:34:00,
2013-06-16 12:39:00,70.2,67.6,29.48,SW,225,1.0,2.0,92,0.12,,,0.24,meteohub,2013-06-16 17:39:00,
2013-06-16 12:44:00,70.2,67.6,29.48,NNW,338,2.0,2.0,92,0.12,,,0.24,meteohub,2013-06-16 17:44:00,
2013-06-16 12:49:00,70.0,67.5,29.48,NNE,22,2.0,2.0,92,0.03,,,0.24,meteohub,2013-06-16 17:49:00,
2013-06-16 12:54:00,70.2,67.6,29.48,East,90,2.0,3.0,92,0.00,,,0.24,meteohub,2013-06-16 17:54:00,
2013-06-16 12:59:00,70.2,67.6,29.48,SSW,202,0.0,3.0,92,0.00,,,0.24,meteohub,2013-06-16 17:59:00,
2013-06-16 13:04:00,70.5,68.0,29.48,SSW,202,0.0,3.0,92,0.00,,,0.24,meteohub,2013-06-16 18:04:00,
2013-06-16 13:09:00,70.5,68.0,29.48,SSW,202,0.0,2.0,92,0.00,,,0.24,meteohub,2013-06-16 18:09:00,
2013-06-16 13:14:00,70.7,68.5,29.48,SSW,202,3.0,3.0,93,0.00,,,0.24,meteohub,2013-06-16 18:14:00,
2013-06-16 13:20:00,70.7,68.5,29.48,WSW,248,4.0,4.0,93,0.00,,,0.24,meteohub,2013-06-16 18:20:00,
2013-06-16 13:25:00,70.7,68.5,29.48,West,270,2.0,4.0,93,0.00,,,0.24,meteohub,2013-06-16 18:25:00,
2013-06-16 13:30:00,70.9,68.7,29.48,South,180,3.0,4.0,93,0.05,,,0.29,meteohub,2013-06-16 18:30:00,
2013-06-16 13:35:00,71.1,68.9,29.48,SSW,202,0.0,4.0,93,0.05,,,0.29,meteohub,2013-06-16 18:35:00,
2013-06-16 13:40:00,71.2,69.1,29.48,South,180,1.0,4.0,93,0.05,,,0.29,meteohub,2013-06-16 18:40:00,
2013-06-16 13:45:00,71.8,69.6,29.48,SSW,202,2.0,4.0,93,0.05,,,0.29,meteohub,2013-06-16 18:45:00,
2013-06-16 13:50:00,72.1,70.0,29.48,SSW,202,1.0,4.0,93,0.05,,,0.29,meteohub,2013-06-16 18:50:00,
2013-06-16 13:55:00,72.7,70.5,29.48,SSW,202,2.0,3.0,93,0.05,,,0.29,meteohub,2013-06-16 18:55:00,
2013-06-16 14:00:00,73.4,71.2,29.48,SSW,202,2.0,4.0,93,0.05,,,0.29,meteohub,2013-06-16 19:00:00,
2013-06-16 14:05:00,73.9,71.8,29.48,South,180,4.0,4.0,93,0.05,,,0.29,meteohub,2013-06-16 19:05:00,
2013-06-16 14:10:00,74.7,72.5,29.48,SW,225,3.0,6.0,93,0.05,,,0.29,meteohub,2013-06-16 19:10:00,
2013-06-16 14:15:00,75.2,72.7,29.45,South,180,4.0,6.0,92,0.05,,,0.29,meteohub,2013-06-16 19:15:00,
2013-06-16 14:20:00,75.2,71.4,29.45,South,180,4.0,6.0,88,0.05,,,0.29,meteohub,2013-06-16 19:20:00,
2013-06-16 14:26:00,75.2,71.4,29.45,SW,225,3.0,7.0,88,0.00,,,0.29,meteohub,2013-06-16 19:26:00,
2013-06-16 14:31:00,76.1,72.7,29.45,South,180,3.0,7.0,89,0.00,,,0.29,meteohub,2013-06-16 19:31:00,
2013-06-16 14:36:00,76.5,73.0,29.45,WSW,248,3.0,6.0,89,0.00,,,0.29,meteohub,2013-06-16 19:36:00,
2013-06-16 14:41:00,77.0,73.2,29.45,South,180,3.0,6.0,88,0.00,,,0.29,meteohub,2013-06-16 19:41:00,
2013-06-16 14:46:00,76.8,72.0,29.45,SSE,158,2.0,6.0,85,0.00,,,0.29,meteohub,2013-06-16 19:46:00,
2013-06-16 14:51:00,76.8,71.6,29.45,South,180,3.0,7.0,84,0.00,,,0.29,meteohub,2013-06-16 19:51:00,
2013-06-16 14:56:00,76.6,70.3,29.45,SW,225,5.0,7.0,81,0.00,,,0.29,meteohub,2013-06-16 19:56:00,
2013-06-16 15:01:00,77.2,71.6,29.45,South,180,2.0,7.0,83,0.00,,,0.29,meteohub,2013-06-16 20:01:00,
2013-06-16 15:06:00,77.5,72.0,29.45,SW,225,4.0,6.0,83,0.00,,,0.29,meteohub,2013-06-16 20:06:00,
2013-06-16 15:11:00,78.1,72.1,29.45,South,180,4.0,6.0,82,0.00,,,0.29,meteohub,2013-06-16 20:11:00,
2013-06-16 15:16:00,78.4,71.4,29.45,SW,225,2.0,6.0,79,0.00,,,0.29,meteohub,2013-06-16 20:16:00,
2013-06-16 15:21:00,78.8,70.5,29.45,SSE,158,6.0,6.0,76,0.00,,,0.29,meteohub,2013-06-16 20:21:00,
2013-06-16 15:26:00,79.3,71.4,29.45,SW,225,2.0,7.0,77,0.00,,,0.29,meteohub,2013-06-16 20:26:00,
2013-06-16 15:31:00,79.2,70.9,29.45,SW,225,4.0,7.0,76,0.00,,,0.29,meteohub,2013-06-16 20:31:00,
2013-06-16 15:36:00,79.2,68.9,29.45,WNW,292,3.0,6.0,71,0.00,,,0.29,meteohub,2013-06-16 20:36:00,
2013-06-16 15:42:00,79.0,68.4,29.45,WNW,292,6.0,6.0,70,0.00,,,0.29,meteohub,2013-06-16 20:42:00,
2013-06-16 15:47:00,78.8,69.1,29.45,SW,225,3.0,6.0,72,0.00,,,0.29,meteohub,2013-06-16 20:47:00,
2013-06-16 15:52:00,78.8,69.1,29.45,South,180,3.0,6.0,72,0.00,,,0.29,meteohub,2013-06-16 20:52:00,
2013-06-16 15:57:00,79.2,69.8,29.45,SSW,202,3.0,6.0,73,0.00,,,0.29,meteohub,2013-06-16 20:57:00,
2013-06-16 16:02:00,79.9,70.5,29.45,South,180,4.0,5.0,73,0.00,,,0.29,meteohub,2013-06-16 21:02:00,
2013-06-16 16:07:00,80.2,69.1,29.45,West,270,5.0,5.0,69,0.00,,,0.29,meteohub,2013-06-16 21:07:00,
2013-06-16 16:12:00,80.2,70.0,29.45,WSW,248,3.0,8.0,71,0.00,,,0.29,meteohub,2013-06-16 21:12:00,
2013-06-16 16:17:00,79.9,69.3,29.45,SSE,158,3.0,8.0,70,0.00,,,0.29,meteohub,2013-06-16 21:17:00,
2013-06-16 16:22:00,80.1,68.5,29.45,SSE,158,3.0,8.0,68,0.00,,,0.29,meteohub,2013-06-16 21:22:00,
2013-06-16 16:27:00,80.4,69.8,29.45,WSW,248,2.0,8.0,70,0.00,,,0.29,meteohub,2013-06-16 21:27:00,
2013-06-16 16:32:00,80.1,68.5,29.45,West,270,4.0,6.0,68,0.00,,,0.29,meteohub,2013-06-16 21:32:00,
2013-06-16 16:37:00,79.3,67.8,29.45,WNW,292,4.0,6.0,68,0.00,,,0.29,meteohub,2013-06-16 21:37:00,
2013-06-16 16:42:00,79.7,67.8,29.45,SSW,202,4.0,6.0,67,0.00,,,0.29,meteohub,2013-06-16 21:42:00,
2013-06-16 16:47:00,79.7,68.2,29.45,West,270,6.0,6.0,68,0.00,,,0.29,meteohub,2013-06-16 21:47:00,
2013-06-16 16:52:00,79.5,67.6,29.45,NW,315,6.0,6.0,67,0.00,,,0.29,meteohub,2013-06-16 21:52:00,
2013-06-16 16:57:00,79.9,68.0,29.45,WSW,248,6.0,6.0,67,0.00,,,0.29,meteohub,2013-06-16 21:57:00,
2013-06-16 17:02:00,79.7,68.2,29.45,SW,225,2.0,6.0,68,0.00,,,0.29,meteohub,2013-06-16 22:02:00,
2013-06-16 17:07:00,79.7,68.5,29.45,West,270,4.0,6.0,69,0.00,,,0.29,meteohub,2013-06-16 22:07:00,
2013-06-16 17:12:00,79.9,68.4,29.45,WSW,248,7.0,7.0,68,0.00,,,0.29,meteohub,2013-06-16 22:12:00,
2013-06-16 17:17:00,79.7,68.2,29.45,WSW,248,2.0,7.0,68,0.00,,,0.29,meteohub,2013-06-16 22:17:00,
2013-06-16 17:22:00,79.9,68.0,29.45,West,270,3.0,7.0,67,0.00,,,0.29,meteohub,2013-06-16 22:22:00,
2013-06-16 17:27:00,80.1,67.6,29.45,West,270,4.0,7.0,66,0.00,,,0.29,meteohub,2013-06-16 22:27:00,
2013-06-16 17:32:00,80.2,68.4,29.45,West,270,3.0,5.0,67,0.00,,,0.29,meteohub,2013-06-16 22:32:00,
2013-06-16 17:37:00,80.8,68.4,29.45,NE,45,4.0,5.0,66,0.00,,,0.29,meteohub,2013-06-16 22:37:00,
2013-06-16 17:42:00,80.4,68.0,29.45,WNW,292,2.0,4.0,66,0.00,,,0.29,meteohub,2013-06-16 22:42:00,
2013-06-16 17:47:00,80.1,67.6,29.45,SW,225,3.0,4.0,66,0.00,,,0.29,meteohub,2013-06-16 22:47:00,
2013-06-16 17:52:00,79.9,68.0,29.45,SW,225,3.0,6.0,67,0.00,,,0.29,meteohub,2013-06-16 22:52:00,
2013-06-16 17:57:00,79.5,67.6,29.45,WSW,248,2.0,6.0,67,0.00,,,0.29,meteohub,2013-06-16 22:57:00,
2013-06-16 18:02:00,79.2,67.6,29.45,WSW,248,2.0,5.0,68,0.00,,,0.29,meteohub,2013-06-16 23:02:00,
2013-06-16 18:07:00,79.0,67.5,29.45,SSW,202,1.0,5.0,68,0.00,,,0.29,meteohub,2013-06-16 23:07:00,
2013-06-16 18:12:00,79.0,68.0,29.45,South,180,3.0,5.0,69,0.00,,,0.29,meteohub,2013-06-16 23:12:00,
2013-06-16 18:17:00,79.0,68.0,29.45,ESE,112,1.0,4.0,69,0.00,,,0.29,meteohub,2013-06-16 23:17:00,
2013-06-16 18:22:00,79.0,68.0,29.45,ESE,112,2.0,4.0,69,0.00,,,0.29,meteohub,2013-06-16 23:22:00,
2013-06-16 18:27:00,79.0,68.0,29.45,SSW,202,1.0,3.0,69,0.00,,,0.29,meteohub,2013-06-16 23:27:00,
2013-06-16 18:32:00,79.0,68.0,29.45,SSW,202,2.0,3.0,69,0.00,,,0.29,meteohub,2013-06-16 23:32:00,
2013-06-16 18:37:00,78.8,68.2,29.45,WSW,248,4.0,4.0,70,0.00,,,0.29,meteohub,2013-06-16 23:37:00,
2013-06-16 18:42:00,78.8,68.2,29.45,SSW,202,3.0,4.0,70,0.00,,,0.29,meteohub,2013-06-16 23:42:00,
2013-06-16 18:47:00,78.8,68.2,29.45,SW,225,2.0,4.0,70,0.00,,,0.29,meteohub,2013-06-16 23:47:00,
2013-06-16 18:52:00,78.8,68.5,29.45,SSW,202,1.0,4.0,71,0.00,,,0.29,meteohub,2013-06-16 23:52:00,
2013-06-16 18:57:00,78.6,68.4,29.45,SW,225,4.0,4.0,71,0.00,,,0.29,meteohub,2013-06-16 23:57:00,
2013-06-16 19:02:00,78.4,68.2,29.45,SSW,202,5.0,5.0,71,0.00,,,0.29,meteohub,2013-06-17 00:02:00,
2013-06-16 19:07:00,78.3,67.6,29.45,South,180,2.0,5.0,70,0.00,,,0.00,meteohub,2013-06-17 00:07:00,
2013-06-16 19:12:00,78.1,67.8,29.45,SW,225,2.0,5.0,71,0.00,,,0.00,meteohub,2013-06-17 00:12:00,
2013-06-16 19:17:00,77.9,68.2,29.45,SSW,202,0.0,5.0,72,0.00,,,0.00,meteohub,2013-06-17 00:17:00,
2013-06-16 19:22:00,77.9,68.2,29.45,SW,225,3.0,3.0,72,0.00,,,0.00,meteohub,2013-06-17 00:22:00,
2013-06-16 19:27:00,77.9,68.5,29.45,SW,225,3.0,3.0,73,0.00,,,0.00,meteohub,2013-06-17 00:27:00,
2013-06-16 19:32:00,77.7,68.7,29.45,South,180,0.0,3.0,74,0.00,,,0.00,meteohub,2013-06-17 00:32:00,
2013-06-16 19:37:00,77.7,68.7,29.45,SW,225,2.0,4.0,74,0.00,,,0.00,meteohub,2013-06-17 00:37:00,
2013-06-16 19:42:00,77.5,68.5,29.45,South,180,0.0,4.0,74,0.00,,,0.00,meteohub,2013-06-17 00:42:00,
2013-06-16 19:47:00,77.4,68.9,29.45,SSW,202,2.0,2.0,75,0.00,,,0.00,meteohub,2013-06-17 00:47:00,
2013-06-16 19:52:00,77.2,68.7,29.45,South,180,0.0,3.0,75,0.00,,,0.00,meteohub,2013-06-17 00:52:00,
2013-06-16 19:57:00,77.0,68.5,29.45,South,180,0.0,3.0,75,0.00,,,0.00,meteohub,2013-06-17 00:57:00,
2013-06-16 20:02:00,76.8,68.7,29.45,South,180,0.0,2.0,76,0.00,,,0.00,meteohub,2013-06-17 01:02:00,
2013-06-16 20:07:00,76.6,68.9,29.45,SSW,202,0.0,2.0,77,0.00,,,0.00,meteohub,2013-06-17 01:07:00,
2013-06-16 20:12:00,76.5,68.7,29.45,SSW,202,0.0,1.0,77,0.00,,,0.00,meteohub,2013-06-17 01:12:00,
2013-06-16 20:17:00,76.3,68.9,29.45,SSW,202,0.0,1.0,78,0.00,,,0.00,meteohub,2013-06-17 01:17:00,
2013-06-16 20:22:00,76.1,68.7,29.45,SSW,202,0.0,0.0,78,0.00,,,0.00,meteohub,2013-06-17 01:22:00,
2013-06-16 20:27:00,75.9,68.9,29.45,SSW,202,0.0,0.0,79,0.00,,,0.00,meteohub,2013-06-17 01:27:00,
2013-06-16 20:32:00,75.6,68.5,29.45,South,180,0.0,0.0,79,0.00,,,0.00,meteohub,2013-06-17 01:32:00,
2013-06-16 20:37:00,75.4,68.7,29.45,South,180,0.0,0.0,80,0.00,,,0.00,meteohub,2013-06-17 01:37:00,
2013-06-16 20:42:00,75.2,68.5,29.45,SSW,202,0.0,0.0,80,0.00,,,0.00,meteohub,2013-06-17 01:42:00,
2013-06-16 20:47:00,75.0,68.7,29.45,NE,45,0.0,0.0,81,0.00,,,0.00,meteohub,2013-06-17 01:47:00,
2013-06-16 20:52:00,75.0,68.7,29.45,East,90,0.0,0.0,81,0.00,,,0.00,meteohub,2013-06-17 01:52:00,
2013-06-16 20:57:00,74.8,68.5,29.45,SE,135,0.0,0.0,81,0.00,,,0.00,meteohub,2013-06-17 01:57:00,
2013-06-16 21:02:00,74.7,68.7,29.45,SE,135,0.0,0.0,82,0.00,,,0.00,meteohub,2013-06-17 02:02:00,
2013-06-16 21:07:00,74.7,68.7,29.45,SSW,202,0.0,1.0,82,0.00,,,0.00,meteohub,2013-06-17 02:07:00,
2013-06-16 21:12:00,74.5,68.5,29.45,SSW,202,0.0,1.0,82,0.00,,,0.00,meteohub,2013-06-17 02:12:00,
2013-06-16 21:17:00,74.5,68.9,29.45,SSW,202,0.0,1.0,83,0.00,,,0.00,meteohub,2013-06-17 02:17:00,
2013-06-16 21:22:00,74.5,68.9,29.45,SSW,202,0.0,0.0,83,0.00,,,0.00,meteohub,2013-06-17 02:22:00,
2013-06-16 21:27:00,74.5,68.9,29.45,SSW,202,0.0,0.0,83,0.00,,,0.00,meteohub,2013-06-17 02:27:00,
2013-06-16 21:32:00,74.3,69.1,29.42,SSW,202,0.0,0.0,84,0.00,,,0.00,meteohub,2013-06-17 02:32:00,
2013-06-16 21:37:00,74.3,69.1,29.42,SSW,202,0.0,0.0,84,0.00,,,0.00,meteohub,2013-06-17 02:37:00,
2013-06-16 21:42:00,74.1,68.9,29.42,SSW,202,0.0,0.0,84,0.00,,,0.00,meteohub,2013-06-17 02:42:00,
2013-06-16 21:47:00,73.9,69.1,29.45,SSW,202,0.0,0.0,85,0.00,,,0.00,meteohub,2013-06-17 02:47:00,
2013-06-16 21:52:00,73.9,69.1,29.45,SSW,202,0.0,0.0,85,0.00,,,0.00,meteohub,2013-06-17 02:52:00,
2013-06-16 21:57:00,73.8,68.9,29.45,SSW,202,0.0,2.0,85,0.00,,,0.00,meteohub,2013-06-17 02:57:00,
2013-06-16 22:02:00,73.8,68.9,29.45,SSW,202,0.0,3.0,85,0.00,,,0.00,meteohub,2013-06-17 03:02:00,
2013-06-16 22:07:00,73.8,68.9,29.45,SSW,202,0.0,3.0,85,0.00,,,0.00,meteohub,2013-06-17 03:07:00,
2013-06-16 22:12:00,73.8,69.3,29.45,SSW,202,0.0,3.0,86,0.00,,,0.00,meteohub,2013-06-17 03:12:00,
2013-06-16 22:17:00,73.8,69.3,29.42,SSW,202,0.0,0.0,86,0.00,,,0.00,meteohub,2013-06-17 03:17:00,
2013-06-16 22:22:00,73.8,69.3,29.42,SSW,202,0.0,0.0,86,0.00,,,0.00,meteohub,2013-06-17 03:22:00,
2013-06-16 22:27:00,73.6,69.1,29.42,SSW,202,0.0,0.0,86,0.00,,,0.00,meteohub,2013-06-17 03:27:00,
2013-06-16 22:32:00,73.6,69.1,29.45,SSW,202,0.0,0.0,86,0.00,,,0.00,meteohub,2013-06-17 03:32:00,
2013-06-16 22:37:00,73.6,69.1,29.45,SSW,202,0.0,0.0,86,0.00,,,0.00,meteohub,2013-06-17 03:37:00,
2013-06-16 22:42:00,73.6,69.4,29.45,SSW,202,0.0,0.0,87,0.00,,,0.00,meteohub,2013-06-17 03:42:00,
2013-06-16 22:47:00,73.4,69.3,29.45,SSW,202,0.0,0.0,87,0.00,,,0.00,meteohub,2013-06-17 03:47:00,
2013-06-16 22:52:00,73.4,69.3,29.45,SSW,202,0.0,0.0,87,0.00,,,0.00,meteohub,2013-06-17 03:52:00,
2013-06-16 22:57:00,73.2,69.1,29.45,SSW,202,0.0,0.0,87,0.00,,,0.00,meteohub,2013-06-17 03:57:00,
2013-06-16 23:01:00,73.2,69.1,29.45,SSW,202,0.0,0.0,87,0.00,,,0.00,meteohub,2013-06-17 04:01:00,
2013-06-16 23:02:00,73.2,69.1,29.45,SSW,202,0.0,0.0,87,0.00,,,0.00,meteohub,2013-06-17 04:02:00,
2013-06-16 23:03:00,73.2,69.1,29.45,SSW,202,0.0,0.0,87,0.00,,,0.00,meteohub,2013-06-17 04:03:00,
2013-06-16 23:05:00,73.2,69.1,29.45,SSW,202,0.0,0.0,87,0.00,,,0.00,meteohub,2013-06-17 04:05:00,
2013-06-16 23:10:00,73.2,69.1,29.45,SSW,202,0.0,0.0,87,0.00,,,0.00,meteohub,2013-06-17 04:10:00,
2013-06-16 23:15:00,73.0,68.9,29.45,SSW,202,0.0,0.0,87,0.00,,,0.00,meteohub,2013-06-17 04:15:00,
2013-06-16 23:20:00,73.0,68.9,29.45,SSW,202,0.0,0.0,87,0.00,,,0.00,meteohub,2013-06-17 04:20:00,
2013-06-16 23:25:00,73.0,68.9,29.45,SSW,202,0.0,0.0,87,0.00,,,0.00,meteohub,2013-06-17 04:25:00,
2013-06-16 23:30:00,73.0,68.9,29.45,SSW,202,0.0,0.0,87,0.00,,,0.00,meteohub,2013-06-17 04:30:00,
2013-06-16 23:35:00,72.9,68.7,29.45,SSW,202,0.0,0.0,87,0.00,,,0.00,meteohub,2013-06-17 04:35:00,
2013-06-16 23:40:00,72.9,68.7,29.45,SSW,202,0.0,0.0,87,0.00,,,0.00,meteohub,2013-06-17 04:40:00,
2013-06-16 23:46:00,72.9,68.7,29.45,NNE,22,0.0,2.0,87,0.00,,,0.00,meteohub,2013-06-17 04:46:00,
2013-06-16 23:51:00,72.9,68.7,29.45,NNE,22,0.0,2.0,87,0.00,,,0.00,meteohub,2013-06-17 04:51:00,
2013-06-16 23:56:00,72.7,68.9,29.45,NE,45,0.0,2.0,88,0.00,,,0.00,meteohub,2013-06-17 04:56:00,